Regional Weather Roundup
Issued by NWS Kansas City/Pleasant Hill, MO

Home | Current Version | Previous Version | Graphics & Text | Print | Product List | Glossary Off
Versions: 1 2 3 4 5 6 7 8 9 10 11 12 13 14 15 16 17 18 19 20 21 22 23 24 25 26 27 28 29 30 31 32 33 34 35 36 37 38 39 40 41 42 43 44 45 46 47 48 49 50

000
ASUS43 KEAX 261911
RWREAX

WEATHER ROUNDUP FOR EASTERN KANSAS AND NORTHWEST MISSOURI
NATIONAL WEATHER SERVICE KANSAS CITY/PLEASANT HILL MO
100 PM CST MON JAN 26 2015

KSZ040-057-103>105-MOZ028-029-037-043-262000-
...KANSAS CITY METROPOLITAN AREA...

CITY           SKY/WX    TMP DP  RH WIND       PRES   REMARKS
K.C. INTL      MOSUNNY   54  36  50 W9        29.90F
K.C. DOWNTOWN  SUNNY     54  34  46 W9        29.91F
LEES SUMMIT    SUNNY     51  34  52 W9G18     29.91F
OLATHE - IXD   SUNNY     53  35  50 W16       29.93F
OLATHE - OJC   SUNNY     51  35  54 W10       29.92F
LAWRENCE       SUNNY     55  34  45 NW12      29.93F

$$

MOZ001>008-011>017-020>025-030>033-038>040-044>046-053-054-262000-
...NORTHERN AND CENTRAL MISSOURI...

CITY           SKY/WX    TMP DP  RH WIND       PRES   REMARKS
ST. JOSEPH     SUNNY     54  37  52 NW18G24   29.91F
MOSBY          CLEAR     50  34  53 W13       29.89F
WARRENSBURG    SUNNY     50  34  53 SW20      29.90F
WHITEMAN AFB   SUNNY     50  34  53 SW21G26   29.89F
CLINTON        SUNNY     52  36  54 SW17      29.92F
SEDALIA        SUNNY     49  35  58 SW22G31   29.89F
WARSAW         NOT AVBL
MARSHALL       MOSUNNY   48  36  61 SW21G28   29.88F
CHILLICOTHE      N/A     51  36  56 W9G21     29.87S
MOBERLY        PTSUNNY   46  34  61 W20G28    29.86F
KIRKSVILLE     SUNNY     45  34  65 W17G29    29.83F

$$

MOZ041-047>049-056>058-063>065-088>090-097-262000-
...EASTERN AND SOUTHERN MISSOURI...

CITY           SKY/WX    TMP DP  RH WIND       PRES   REMARKS
ST. LOUIS INTL FLURRIES  36  26  67 W5        29.94R WCI  32
SPIRIT OF STL  CLOUDY    37  28  70 CALM      29.93F
COLUMBIA       PTSUNNY   47  34  60 SW18G32   29.85F
JEFFERSON CITY MOSUNNY   46  31  55 SW16      29.87F
MEXICO         CLOUDY    41  37  87 CALM      29.89F
HANNIBAL       MOSUNNY   41  34  75 S13       29.83F WCI  34
ROLLA          CLOUDY    43  31  62 SW15      29.87F
LEBANON        SUNNY     50  32  50 SW13G23   29.92F
OSAGE BEACH    SUNNY     48  30  49 SW13G22   29.92F
SPRINGFIELD    SUNNY     52  31  44 SW18      29.95F
BRANSON        SUNNY     54  32  43 W6        30.00F
NEVADA         SUNNY     54  34  47 SW13G21   29.95F
JOPLIN         SUNNY     52  32  46 SW20G28   29.97F
WEST PLAINS    SUNNY     46  30  53 SW8       29.97F

$$

IAZ060-094-KSZ022-034>040-054-083-096-NEZ052-066-093-262000-
...KANSAS...SOUTHEAST NEBRASKA AND IOWA...

CITY           SKY/WX    TMP DP  RH WIND       PRES   REMARKS
TOPEKA         SUNNY     58  34  40 W9        29.93F
MANHATTAN      SUNNY     63  36  36 NW9G17    29.96F
EMPORIA        SUNNY     61  34  36 W15       29.95F
CHANUTE        SUNNY     57  34  41 SW12      29.97F
WICHITA        SUNNY     68  35  29 NW16G22   30.00F
OMAHA          MOSUNNY   56  37  49 N14       29.92R
LINCOLN        SUNNY     59  34  39 NW18      29.97S
FALLS CITY     SUNNY     58  36  43 NW17G29   29.91S
LAMONI         SUNNY     50  36  58 NW20      29.84F
DES MOINES     MOSUNNY   50  36  58 NW21      29.82F

$$




USA.gov is the U.S. government's official web portal to all federal, state and local government web resources and services.